Regional Weather Roundup
Issued by NWS

Home | Current Version | Previous Version | Text Only | Print | Product List | Glossary On
Versions: 1 2 3 4 5 6 7 8 9 10 11 12 13 14 15 16 17 18 19 20 21 22 23 24 25 26 27
000
ASUS45 KSLC 040810
RWRUT

UTAH REGIONAL WEATHER ROUNDUP
NATIONAL WEATHER SERVICE SALT LAKE CITY UT
200 AM MDT WED MAY 04 2016

UTZ001>011-023>025-040900-

NORTHERN UTAH

CITY           SKY/WX    TMP DP  RH WIND       PRES   REMARKS
BRIGHAM CITY   CLEAR     48  37  64 CALM      30.17R
HILL AFB       CLEAR     54  35  47 E17       30.16F
LOGAN          CLEAR     47  39  74 CALM      30.18R
OGDEN          CLEAR     52  36  54 S8        30.15S
PROVO AIRPORT  CLEAR     52  34  50 SE3       30.18S
SALT LAKE CITY CLEAR     56  38  50 SE7       30.16S
VERNAL         CLEAR     46  29  51 W5        30.23S
WENDOVER       CLEAR     54  37  54 CALM      30.14F
HEBER CITY     CLEAR     36  32  87 CALM      30.23S

$$

UTZ012>022-026-027-040900-

SOUTHERN/CENTRAL UTAH

CITY           SKY/WX    TMP DP  RH WIND       PRES   REMARKS
BLANDING       CLEAR     48  32  53 N10       30.31F
BRYCE CANYON   CLEAR     29  26  89 W5        30.32S WCI  24
CEDAR CITY     PTCLDY    48  32  53 CALM      30.17S
DELTA          CLEAR     54  36  50 CALM      30.16R
HANKSVILLE     CLEAR     46  34  61 CALM      30.20S
MILFORD        CLEAR     48  31  51 NW5       30.16S
MOAB/CYNLANDS  CLEAR     53  33  46 CALM      30.17S
PRICE          CLEAR     48  27  44 N3        30.24S
ST GEORGE      SUNNY     64  36  34 NE6       30.07R
KANAB          PTCLDY    52  34  50 N7        30.21S

$$

REGIONAL REPORTS     COLORADO/ARIZONA

CITY           SKY/WX    TMP DP  RH WIND       PRES   REMARKS
CRAIG, CO      CLEAR     36  31  82 CALM      30.30R
GRAND JUNCTION CLEAR     49  35  58 NE3       30.20R
RIFLE          CLEAR     44  32  62 S6        30.27R
MONTROSE       CLEAR     50  28  42 SE13      30.28R
CORTEZ         CLEAR     39  31  72 E3        30.28S
PAGE, AZ       CLEAR     58  31  35 W3        30.14S
GRAND CANYON   PTCLDY    42  31  64 E5        30.25S
KINGMAN        CLEAR     67  32  27 SE17      30.02S
FLAGSTAFF      PTCLDY    36  32  85 NE3       30.26S

$$

REGIONAL REPORTS    NEVADA/IDAHO/WYOMING

CITY           SKY/WX    TMP DP  RH WIND       PRES   REMARKS
LAS VEGAS, NV  PTCLDY    71  37  28 S3        29.92R
ELY            CLOUDY    44  31  60 CALM      30.20S
ELKO           MOCLDY    52  38  58 NE5       30.12S
POCATELLO, ID  CLEAR     43  37  79 NE3       30.17S
BURLEY         PTCLDY    53  29  39 SE5       30.11F
EVANSTON, WY   CLOUDY    46  25  43 S7        30.29S
ROCK SPRINGS   CLEAR     46  26  45 CALM      30.29R
KEMMERER         N/A     39  27  60 NW12      30.31S WCI  32

$$




USA.gov is the U.S. government's official web portal to all federal, state and local government web resources and services.